Regional Weather Roundup
Issued by NWS

Home | Current Version | Previous Version | Text Only | Print | Product List | Glossary On
Versions: 1 2 3 4 5 6 7 8 9 10 11 12 13 14 15 16 17 18 19 20 21 22 23 24 25 26 27 28 29 30 31 32 33 34 35 36 37 38 39 40 41 42 43 44 45 46 47 48 49 50
000
ASUS43 KOAX 201410
RWRNE

WEATHER ROUNDUP FOR NEBRASKA
NATIONAL WEATHER SERVICE OMAHA NE
900 AM CDT SUN AUG 20 2017

NOTES: SATELLITE DATA IS BEING USED TO AUGMENT CLOUD COVER ABOVE
       12000 FEET.
       "FAIR" INDICATES FEW OR NO CLOUDS BELOW 12,000 FEET WITH NO
       SIGNIFICANT WEATHER AND/OR OBSTRUCTIONS TO VISIBILITY.


NEZ001>004-019>022-054>056-201500-
NEBRASKA PANHANDLE

CITY           SKY/WX    TMP DP  RH WIND       PRES   REMARKS
SCOTTSBLUFF    CLOUDY    65  51  60 N3        30.07R
ALLIANCE       SUNNY     66  59  78 NE15      30.04R
CHADRON        SUNNY     62  49  62 NW3       30.07R
GORDON         FAIR      66  55  66 E14       30.05S
KIMBALL        PTSUNNY   61  39  44 N7        30.09R
SIDNEY         MOSUNNY   61  50  67 N10       30.05R
$$

NEZ057>060-069>072-079>082-201500-
SOUTHWEST NEBRASKA

CITY           SKY/WX    TMP DP  RH WIND       PRES   REMARKS
NORTH PLATTE   SUNNY     70  64  81 NE9       29.94S
IMPERIAL       SUNNY     69  60  73 N16       29.96R
LEXINGTON      SUNNY     69  65  88 NE6       29.94R
MCCOOK         SUNNY     69  60  73 SE3       29.90R
OGALLALA       SUNNY     70  61  74 NE14      29.98R
$$

NEZ005>010-023>029-035>040-094-201500-
NORTH CENTRAL NEBRASKA

CITY           SKY/WX    TMP DP  RH WIND       PRES   REMARKS
VALENTINE      SUNNY     70  61  73 E10       30.01R
AINSWORTH      SUNNY     68  65  90 NE9       30.00R
BROKEN BOW     SUNNY     68  61  78 E7        29.95S
O`NEILL        SUNNY     73  59  62 CALM      29.97S
ORD            SUNNY     67  60  78 CALM      29.93S
THEDFORD       SUNNY     67  63  85 NE9       29.97F
$$

NEZ041-046>049-061>064-073>077-083>087-201500-
SOUTH CENTRAL NEBRASKA

CITY           SKY/WX    TMP DP  RH WIND       PRES   REMARKS
GRAND ISLAND   MOSUNNY   71  65  81 S17       29.91R
AURORA         SUNNY     71  64  80 S9        29.91R
HASTINGS       SUNNY     70  62  76 S10       29.92S
HEBRON         SUNNY     75  65  70 S10G17    29.92R
HOLDREGE       SUNNY     69  65  87 SE8       29.92R
KEARNEY        SUNNY     68  64  87 SE10      29.93R
YORK           MOSUNNY   72  63  73 S8        29.91R
$$

NEZ011>018-030>034-042>045-201500-
NORTHEAST NEBRASKA

CITY           SKY/WX    TMP DP  RH WIND       PRES   REMARKS
NORFOLK        SUNNY     71  62  73 N8        29.94R
ALBION         SUNNY     70  64  80 N3        29.95R
BLAIR          LGT RAIN  70  67  88 S7        29.92R
COLUMBUS       SUNNY     70  63  78 NW3       29.94R
FREMONT        SUNNY     71  63  74 SE5       29.93R
TEKAMAH        SUNNY     72  66  81 CALM      29.91R
WAYNE          MOSUNNY   70  65  85 N5        29.95R
$$

NEZ050>053-065>068-078-088>093-201500-
SOUTHEAST NEBRASKA

CITY           SKY/WX    TMP DP  RH WIND       PRES   REMARKS
LINCOLN        CLOUDY    69  64  84 S6        29.91R
OMAHA EPPLEY   PTSUNNY   71  65  81 S8        29.91R
BEATRICE       SUNNY     73  64  73 S10G16    29.91F
FALLS CITY     CLOUDY    70  65  84 SE12      29.93F
NEBRASKA CITY  CLOUDY    69  69  97 E5        29.94R
PLATTSMOUTH    TSTM      68  63  84 S8        29.96R
$$

NEZ044-045-051>053-067-201500-
OMAHA AREA

CITY           SKY/WX    TMP DP  RH WIND       PRES   REMARKS
OMAHA EPPLEY   PTSUNNY   71  65  81 S8        29.91R
BLAIR          LGT RAIN  70  67  88 S7        29.92R
FREMONT        SUNNY     71  63  74 SE5       29.93R
MILLARD        CLOUDY    70  67  89 SE3       29.92R
OFFUTT AFB     TSTM      68  64  88 SE10      29.92R
PLATTSMOUTH    TSTM      68  63  84 S8        29.96R
WAHOO          FAIR      68  66  92 E7        29.92R
$$



USA.gov is the U.S. government's official web portal to all federal, state and local government web resources and services.